| time (UTC) | temp F | wind direction | speed knots | gust knots | rain 1hr in | rain 24hr in | rain mn in | humidity % | barometer mb |
| 20260506204519 | 63 | 42 | 0.0 | 10.4 | 0.00 | 0.00 | 0.00 | 45 | 1015.7 |
| 20260506203018 | 63 | 97 | 2.6 | 12.2 | 0.00 | 0.00 | 0.00 | 45 | 1015.7 |
| 20260506201517 | 63 | 292 | 1.7 | 8.7 | 0.00 | 0.00 | 0.00 | 46 | 1016.1 |
| 20260506200015 | 62 | 353 | 2.6 | 11.3 | 0.00 | 0.00 | 0.00 | 43 | 1016.2 |
| 20260506194517 | 62 | 321 | 2.6 | 13.9 | 0.00 | 0.00 | 0.00 | 44 | 1016.2 |
| 20260506193012 | 62 | 133 | 1.7 | 8.7 | 0.00 | 0.00 | 0.00 | 45 | 1016.4 |
| 20260506191512 | 62 | 121 | 0.0 | 10.4 | 0.00 | 0.00 | 0.00 | 45 | 1016.5 |
| 20260506190010 | 62 | 14 | 1.7 | 10.4 | 0.00 | 0.00 | 0.00 | 48 | 1016.5 |
| 20260506184508 | 61 | 129 | 0.9 | 7.8 | 0.00 | 0.00 | 0.00 | 50 | 1016.6 |
| 20260506183008 | 61 | 356 | 1.7 | 9.6 | 0.00 | 0.00 | 0.00 | 48 | 1016.8 |
| 20260506181507 | 61 | 184 | 1.7 | 7.8 | 0.00 | 0.00 | 0.00 | 49 | 1016.9 |
| 20260506180006 | 60 | 164 | 1.7 | 11.3 | 0.00 | 0.00 | 0.00 | 48 | 1017.3 |
| 20260506174503 | 60 | 61 | 1.7 | 7.8 | 0.00 | 0.00 | 0.00 | 47 | 1017.2 |
| 20260506173002 | 60 | 67 | 0.0 | 12.2 | 0.00 | 0.00 | 0.00 | 50 | 1017.6 |
| 20260506171606 | 59 | 62 | 1.7 | 9.6 | 0.00 | 0.00 | 0.00 | 48 | 1017.6 |
| 20260506170109 | 59 | 72 | 1.7 | 9.6 | 0.00 | 0.00 | 0.00 | 51 | 1017.3 |
| 20260506164557 | 58 | 115 | 0.9 | 10.4 | 0.00 | 0.00 | 0.00 | 52 | 1017.4 |
| 20260506163055 | 58 | 349 | 3.5 | 8.7 | 0.00 | 0.00 | 0.00 | 49 | 1017.6 |
| 20260506161552 | 58 | 14 | 0.9 | 7.8 | 0.00 | 0.00 | 0.00 | 53 | 1017.8 |
| 20260506160059 | 57 | 42 | 0.9 | 13.0 | 0.00 | 0.00 | 0.00 | 56 | 1017.5 |
| 20260506154548 | 56 | 116 | 2.6 | 12.2 | 0.00 | 0.00 | 0.00 | 54 | 1017.1 |
| 20260506153041 | 55 | 74 | 2.6 | 9.6 | 0.00 | 0.00 | 0.00 | 55 | 1017.0 |
| 20260506151543 | 55 | 20 | 3.5 | 8.7 | 0.00 | 0.00 | 0.00 | 58 | 1017.1 |
| 20260506150036 | 54 | 69 | 1.7 | 13.9 | 0.00 | 0.00 | 0.00 | 60 | 1017.1 |
| 20260506144532 | 53 | 37 | 0.9 | 6.1 | 0.00 | 0.00 | 0.00 | 64 | 1017.2 |
| 20260506143034 | 52 | 15 | 0.0 | 0.9 | 0.00 | 0.00 | 0.00 | 70 | 1016.9 |
| 20260506141525 | 51 | 15 | 0.0 | 6.1 | 0.00 | 0.00 | 0.00 | 73 | 1016.8 |
| 20260506140022 | 50 | 16 | 0.0 | 5.2 | 0.00 | 0.00 | 0.00 | 75 | 1016.4 |
| 20260506134523 | 50 | 42 | 0.0 | 7.0 | 0.00 | 0.00 | 0.00 | 76 | 1016.9 |
| 20260506133017 | 49 | 313 | 0.9 | 6.1 | 0.00 | 0.00 | 0.00 | 77 | 1017.2 |
| 20260506131535 | 48 | 43 | 0.0 | 6.1 | 0.00 | 0.00 | 0.00 | 78 | 1017.0 |
| 20260506130023 | 48 | 81 | 0.0 | 5.2 | 0.00 | 0.00 | 0.00 | 79 | 1017.0 |
| 20260506124510 | 48 | 128 | 0.0 | 0.0 | 0.00 | 0.00 | 0.00 | 80 | 1016.7 |
| 20260506123008 | 47 | 109 | 0.0 | 0.0 | 0.00 | 0.00 | 0.00 | 80 | 1016.5 |
| 20260506121508 | 47 | 26 | 0.0 | 5.2 | 0.00 | 0.00 | 0.00 | 80 | 1015.9 |
| 20260506120012 | 47 | 339 | 0.0 | 0.0 | 0.00 | 0.00 | 0.00 | 80 | 1015.9 |
| 20260506114503 | 47 | 332 | 0.0 | 0.0 | 0.00 | 0.00 | 0.00 | 80 | 1015.9 |
| 20260506113002 | 47 | 65 | 0.0 | 2.6 | 0.00 | 0.00 | 0.00 | 80 | 1015.7 |
| 20260506111559 | 47 | 325 | 0.9 | 7.0 | 0.00 | 0.00 | 0.00 | 79 | 1015.6 |
| 20260506110103 | 47 | 76 | 0.0 | 7.0 | 0.00 | 0.00 | 0.00 | 78 | 1015.0 |
| 20260506104556 | 48 | 76 | 1.7 | 6.1 | 0.00 | 0.00 | 0.00 | 76 | 1015.3 |
| 20260506103052 | 48 | 164 | 0.9 | 9.6 | 0.00 | 0.00 | 0.00 | 76 | 1014.9 |
| 20260506101549 | 48 | 31 | 0.0 | 7.0 | 0.00 | 0.00 | 0.00 | 77 | 1015.2 |
| 20260506100046 | 48 | 104 | 0.9 | 7.8 | 0.00 | 0.00 | 0.00 | 76 | 1014.9 |
| 20260506094554 | 48 | 357 | 2.6 | 8.7 | 0.00 | 0.00 | 0.00 | 76 | 1014.1 |
| 20260506093042 | 48 | 53 | 0.9 | 7.8 | 0.00 | 0.00 | 0.00 | 77 | 1013.9 |
| 20260506091541 | 48 | 333 | 1.7 | 7.0 | 0.00 | 0.00 | 0.00 | 77 | 1013.7 |
| 20260506090039 | 48 | 318 | 0.0 | 0.0 | 0.00 | 0.00 | 0.00 | 79 | 1014.0 |
| 20260506084541 | 49 | 306 | 0.0 | 0.9 | 0.00 | 0.00 | 0.00 | 81 | 1013.8 |
| 20260506083037 | 48 | 316 | 0.0 | 0.0 | 0.00 | 0.00 | 0.00 | 90 | 1014.2 |
| 20260506081535 | 48 | 302 | 0.0 | 0.0 | 0.00 | 0.00 | 0.00 | 91 | 1013.9 |
| 20260506073029 | 48 | 334 | 0.0 | 0.0 | 0.00 | 0.00 | 0.00 | 89 | 1012.6 |
| 20260506071529 | 48 | 320 | 0.0 | 0.0 | 0.00 | 0.00 | 0.00 | 88 | 1012.4 |
| 20260506061523 | 49 | 92 | 0.0 | 0.0 | 0.00 | 0.00 | 0.00 | 85 | 1012.3 |
| 20260506044510 | 48 | 115 | 0.0 | 0.0 | 0.00 | 0.00 | 0.00 | 84 | 1012.0 |
| 20260506043010 | 48 | 40 | 0.0 | 0.0 | 0.00 | 0.00 | 0.00 | 83 | 1011.9 |
| 20260506041514 | 48 | 100 | 0.0 | 0.0 | 0.00 | 0.00 | 0.00 | 83 | 1012.1 |
| 20260506040010 | 48 | 299 | 0.0 | 0.0 | 0.00 | 0.00 | 0.00 | 83 | 1012.3 |
| 20260506034510 | 48 | 346 | 0.0 | 0.0 | 0.00 | 0.00 | 0.00 | 82 | 1012.4 |
| 20260506033006 | 48 | 62 | 0.0 | 0.0 | 0.00 | 0.00 | 0.00 | 82 | 1012.6 |
| 20260506031505 | 49 | 3 | 0.0 | 0.0 | 0.00 | 0.00 | 0.00 | 81 | 1012.4 |
| 20260506030009 | 49 | 12 | 0.0 | 0.0 | 0.00 | 0.00 | 0.00 | 79 | 1012.2 |
| 20260506024603 | 49 | 320 | 0.0 | 0.0 | 0.00 | 0.00 | 0.00 | 77 | 1012.2 |
| 20260506023101 | 49 | 318 | 0.0 | 0.0 | 0.00 | 0.00 | 0.00 | 75 | 1011.7 |
| 20260506021555 | 49 | 327 | 0.0 | 9.6 | 0.00 | 0.00 | 0.00 | 75 | 1011.2 |
| 20260506020053 | 50 | 23 | 0.0 | 7.0 | 0.00 | 0.00 | 0.00 | 75 | 1011.0 |
| 20260506014552 | 50 | 18 | 0.0 | 0.0 | 0.00 | 0.00 | 0.00 | 74 | 1010.6 |
| 20260506013051 | 50 | 348 | 0.0 | 8.7 | 0.00 | 0.00 | 0.00 | 73 | 1010.3 |
| 20260506011547 | 50 | 78 | 0.0 | 0.0 | 0.00 | 0.00 | 0.00 | 74 | 1010.3 |
| 20260506010047 | 50 | 31 | 0.0 | 0.0 | 0.00 | 0.00 | 0.00 | 71 | 1010.3 |
| 20260506004542 | 50 | 31 | 0.0 | 12.2 | 0.00 | 0.00 | 0.00 | 69 | 1010.0 |
| 20260506003040 | 50 | 320 | 0.0 | 0.0 | 0.00 | 0.00 | 0.00 | 77 | 1009.6 |
| 20260506001541 | 50 | 52 | 0.0 | 0.0 | 0.00 | 0.00 | 0.00 | 77 | 1009.2 |
| 20260506000040 | 50 | 130 | 0.0 | 4.3 | 0.00 | 0.00 | 0.00 | 76 | 1009.6 |
| 20260505234539 | 50 | 48 | 0.9 | 8.7 | 0.00 | 0.00 | 0.00 | 78 | 1009.3 |
| 20260505233036 | 51 | 45 | 0.0 | 0.9 | 0.00 | 0.00 | 0.00 | 77 | 1009.4 |
| 20260505231542 | 51 | 16 | 0.0 | 7.0 | 0.00 | 0.00 | 0.00 | 76 | 1009.2 |
| 20260505230048 | 51 | 332 | 0.0 | 10.4 | 0.00 | 0.00 | 0.00 | 75 | 1008.8 |
| 20260505224530 | 51 | 42 | 2.6 | 11.3 | 0.00 | 0.00 | 0.00 | 74 | 1008.6 |
| 20260505223029 | 52 | 81 | 0.9 | 7.8 | 0.00 | 0.00 | 0.00 | 74 | 1008.4 |
| 20260505221528 | 52 | 130 | 1.7 | 13.0 | 0.00 | 0.00 | 0.00 | 73 | 1008.3 |
| 20260505220031 | 52 | 8 | 0.9 | 13.0 | 0.00 | 0.00 | 0.00 | 74 | 1008.3 |
| 20260505214527 | 51 | 69 | 0.9 | 12.2 | 0.00 | 0.00 | 0.00 | 75 | 1008.2 |
| 20260505213025 | 51 | 54 | 0.9 | 14.8 | 0.00 | 0.00 | 0.00 | 76 | 1008.2 |
| 20260505211525 | 51 | 58 | 3.5 | 13.9 | 0.00 | 0.00 | 0.00 | 76 | 1008.2 |
| 20260505210023 | 51 | 22 | 0.0 | 10.4 | 0.00 | 0.00 | 0.00 | 80 | 1008.0 |